Theta_e
325 322 324 326 324 326 327 327 330 329 330 330 328 330 332 331 331 332 329 328 329 325
324 324 323 327 326 330 328 329 331 328 332 333 332 329 330 332 330 325 325 325 324 324
322 323 324 326 326 328 327 325 325 323 323 327 332 329 328 330 330 331 330 328 330 327
322 322 324 324 325 324 326 325 324 324 323 324 328 330 331 333 332 332 330 331 331 329
322 322 323 324 325 327 327 328 328 327 327 325 326 328 329 329 330 330 328 328 329 328
321 321 323 323 323 326 327 327 327 327 326 326 324 324 324 325 326 328 329 329 328 327
321 321 322 323 324 325 326 326 325 325 324 323 323 322 321 322 321 321 323 326 326 326
320 320 320 322 323 323 325 325 325 324 324 324 322 320 323 323 323 321 319 319 320 320
318 318 320 320 321 322 323 323 324 323 323 323 317 301 305 318 322 322 321 319 319 317
318 317 319 319 320 320 323 324 323 322 323 323 320 299 299 305 320 320 320 319 318 314
317 317 319 318 320 320 320 323 322 322 323 322 318 297 296 301 315 315 314 316 316 317
317 317 318 318 318 319 319 319 319 320 320 321 319 296 295 304 311 309 308 307 308 311
318 317 318 320 318 318 319 319 317 317 319 312 320 295 294 303 307 308 305 307 307 297
320 318 320 321 320 318 317 317 316 315 317 317 317 315 295 295 310 308 307 307 308 308
Wind_Speed
6 5 4 4 4 3 3 4 6 4 6 7 9 8 8 7 6 9 7 11 8 8
5 6 6 6 5 4 4 3 4 5 5 5 8 6 6 6 7 6 5 5 6 8
4 4 6 4 5 5 4 1 4 5 4 4 6 5 6 5 7 8 6 6 10 9
4 4 5 6 5 2 3 4 7 8 7 4 5 7 7 5 6 7 9 8 10 11
4 4 5 6 6 5 6 6 8 9 10 9 9 7 8 8 8 10 9 7 9 11
4 4 6 6 6 6 6 8 8 9 11 11 10 9 8 9 9 10 9 9 10 10
5 4 4 5 6 6 6 8 9 9 10 10 11 10 10 9 10 9 9 8 9 9
5 5 5 6 6 6 6 7 8 9 9 9 8 6 10 10 10 10 10 8 8 7
6 7 6 6 6 6 7 7 7 7 7 7 6 8 9 8 8 8 9 8 7 8
9 8 8 8 8 8 7 7 6 6 6 6 6 7 8 7 6 6 6 6 6 5
10 10 9 9 9 7 6 7 6 6 5 5 4 6 7 6 6 5 5 5 5 5
12 11 10 10 9 8 7 7 6 6 6 6 6 7 8 6 6 5 5 4 4 4
13 13 12 11 10 8 7 7 6 6 5 4 6 10 10 8 6 7 6 6 5 3
14 13 12 11 9 9 8 7 7 7 7 8 8 9 11 9 7 6 6 5 5 5
Wind_Direction
34 41 60 61 46 60 57 42 67 91 84 103 111 115 131 121 118 128 114 128 125 126
39 36 61 61 71 65 45 58 56 64 91 134 141 127 107 115 110 99 103 108 127 133
53 39 68 116 84 86 81 10 81 59 86 126 155 135 120 137 133 142 149 155 157 145
79 72 59 79 84 71 98 92 103 121 120 139 142 136 138 139 160 150 149 152 162 152
97 93 73 68 70 65 52 81 100 113 112 113 114 123 126 139 145 149 144 145 154 143
115 101 101 78 75 85 74 68 76 94 99 104 108 109 109 119 119 124 136 146 147 138
146 121 116 109 94 98 97 94 86 83 94 101 112 116 115 110 106 110 113 116 123 134
148 141 140 128 112 101 103 103 103 99 89 87 88 90 107 102 100 102 99 90 90 74
160 157 150 139 130 120 122 119 118 114 113 104 87 64 64 94 102 105 111 111 103 109
165 165 161 153 150 147 143 137 132 127 128 113 111 110 107 110 113 119 120 128 137 141
172 170 164 164 161 153 155 154 151 153 145 138 117 125 120 109 119 127 138 155 160 151
175 176 170 171 165 161 160 163 170 176 171 175 151 158 160 157 141 134 141 151 156 148
178 178 181 175 168 166 174 176 175 172 186 173 177 171 176 175 160 165 172 179 174 209
180 182 181 171 170 170 176 171 183 187 188 201 204 179 183 202 183 182 182 177 183 193